Find Starlink 32541

NORAD ID: 61916 Int'l Des: 2024-207 Owner: SPXS Country: US Constellation: starlink operational
LEOCIRCULAR

Current View

Loading 3D Globe...

About Starlink 32541

Starlink 32541 (NORAD 61916) is a starlink constellation satellite (v2 mini) launched Nov 11, 2024 by SPXS of US. It operates in LEO, CIRCULAR orbit with a mass of 730.00 kg.

Upcoming Passes

Passes for default location (London). Set your location on the main map for personalized predictions.

Altitude History

Loading altitude history...

Two-Line Element Set

1 61916U 24207E 26263.37567845 .00011187 00000-0 41573-3 0 9993
2 61916 43.0004 265.9880 0001290 271.6791 88.3913 15.27556744104451
Epoch: Sep 20, 2026 • Age: 13 hours

Current Status

Altitude 483.9 km
Apogee / Perigee N/A
Velocity 7.63 km/s
Sub-Earth Point 27.16°N, 77.33°E
Launch Date Nov 11, 2024
Age 1.8 years
Type internet

Technical Details

Classification Payload
Mass 730.00 kg
Dry Mass 700.00 kg
Length 0.30 m
Span 29.00 m
Shape ? Box + pan
Manufacturer SPXS
Bus Type Starlink V2M
Phase Status In Orbit
Owner/State SPXS/US

Most Searched